Year,Month,Day,Hour,Minute,Value (Times are PST for insolation in W/m^2)
2012,12,06,00,00,0.00
2012,12,06,00,01,0.00
2012,12,06,00,02,0.00
2012,12,06,00,03,0.00
2012,12,06,00,04,0.00
2012,12,06,00,05,0.00
2012,12,06,00,06,0.00
2012,12,06,00,07,0.00
2012,12,06,00,08,0.00
2012,12,06,00,09,0.00
2012,12,06,00,10,0.00
2012,12,06,00,11,0.00
2012,12,06,00,12,0.00
2012,12,06,00,13,0.00
2012,12,06,00,14,0.00
2012,12,06,00,15,0.00
2012,12,06,00,16,0.00
2012,12,06,00,17,0.00
2012,12,06,00,18,0.00
2012,12,06,00,19,0.00
2012,12,06,00,20,0.00
2012,12,06,00,21,0.00
2012,12,06,00,22,0.00
2012,12,06,00,23,0.00
2012,12,06,00,24,0.00
2012,12,06,00,25,0.00
2012,12,06,00,26,0.00
2012,12,06,00,27,0.00
2012,12,06,00,28,0.00
2012,12,06,00,29,0.00
2012,12,06,00,30,0.00
2012,12,06,00,31,0.00
2012,12,06,00,32,0.00
2012,12,06,00,33,0.00
2012,12,06,00,34,0.00
2012,12,06,00,35,0.00
2012,12,06,00,36,0.00
2012,12,06,00,37,0.00
2012,12,06,00,38,0.00
2012,12,06,00,39,0.00
2012,12,06,00,40,0.00
2012,12,06,00,41,0.00
2012,12,06,00,42,0.00
2012,12,06,00,43,0.00
2012,12,06,00,44,0.00
2012,12,06,00,45,0.00
2012,12,06,00,46,0.00
2012,12,06,00,47,0.00
2012,12,06,00,48,0.00
2012,12,06,00,49,0.00
2012,12,06,00,50,0.00
2012,12,06,00,51,0.00
2012,12,06,00,52,0.00
2012,12,06,00,53,0.00
2012,12,06,00,54,0.00
2012,12,06,00,55,0.00
2012,12,06,00,56,0.00
2012,12,06,00,57,0.00
2012,12,06,00,58,0.00
2012,12,06,00,59,0.00
2012,12,06,01,00,0.00
2012,12,06,01,01,0.00
2012,12,06,01,02,0.00
2012,12,06,01,03,0.00
2012,12,06,01,04,0.00
2012,12,06,01,05,0.00
2012,12,06,01,06,0.00
2012,12,06,01,07,0.00
2012,12,06,01,08,0.00
2012,12,06,01,09,0.00
2012,12,06,01,10,0.00
2012,12,06,01,11,0.00
2012,12,06,01,12,0.00
2012,12,06,01,13,0.00
2012,12,06,01,14,0.00
2012,12,06,01,15,0.00
2012,12,06,01,16,0.00
2012,12,06,01,17,0.00
2012,12,06,01,18,0.00
2012,12,06,01,19,0.00
2012,12,06,01,20,0.00
2012,12,06,01,21,0.00
2012,12,06,01,22,0.00
2012,12,06,01,23,0.00
2012,12,06,01,24,0.00
2012,12,06,01,25,0.00
2012,12,06,01,26,0.00
2012,12,06,01,27,0.00
2012,12,06,01,28,0.00
2012,12,06,01,29,0.00
2012,12,06,01,30,0.00
2012,12,06,01,31,0.00
2012,12,06,01,32,0.00
2012,12,06,01,33,0.00
2012,12,06,01,34,0.00
2012,12,06,01,35,0.00
2012,12,06,01,36,0.00
2012,12,06,01,37,0.00
2012,12,06,01,38,0.00
2012,12,06,01,39,0.00
2012,12,06,01,40,0.00
2012,12,06,01,41,0.00
2012,12,06,01,42,0.00
2012,12,06,01,43,0.00
2012,12,06,01,44,0.00
2012,12,06,01,45,0.00
2012,12,06,01,46,0.00
2012,12,06,01,47,0.00
2012,12,06,01,48,0.00
2012,12,06,01,49,0.00
2012,12,06,01,50,0.00
2012,12,06,01,51,0.00
2012,12,06,01,52,0.00
2012,12,06,01,53,0.00
2012,12,06,01,54,0.00
2012,12,06,01,55,0.00
2012,12,06,01,56,0.00
2012,12,06,01,57,0.00
2012,12,06,01,58,0.00
2012,12,06,01,59,0.00
2012,12,06,02,00,0.00
2012,12,06,02,01,0.00
2012,12,06,02,02,0.00
2012,12,06,02,03,0.00
2012,12,06,02,04,0.00
2012,12,06,02,05,0.00
2012,12,06,02,06,0.00
2012,12,06,02,07,0.00
2012,12,06,02,08,0.00
2012,12,06,02,09,0.00
2012,12,06,02,10,0.00
2012,12,06,02,11,0.00
2012,12,06,02,12,0.00
2012,12,06,02,13,0.00
2012,12,06,02,14,0.00
2012,12,06,02,15,0.00
2012,12,06,02,16,0.00
2012,12,06,02,17,0.00
2012,12,06,02,18,0.00
2012,12,06,02,19,0.00
2012,12,06,02,20,0.00
2012,12,06,02,21,0.00
2012,12,06,02,22,0.00
2012,12,06,02,23,0.00
2012,12,06,02,24,0.00
2012,12,06,02,25,0.00
2012,12,06,02,26,0.00
2012,12,06,02,27,0.00
2012,12,06,02,28,0.00
2012,12,06,02,29,0.00
2012,12,06,02,30,0.00
2012,12,06,02,31,0.00
2012,12,06,02,32,0.00
2012,12,06,02,33,0.00
2012,12,06,02,34,0.00
2012,12,06,02,35,0.00
2012,12,06,02,36,0.00
2012,12,06,02,37,0.00
2012,12,06,02,38,0.00
2012,12,06,02,39,0.00
2012,12,06,02,40,0.00
2012,12,06,02,41,0.00
2012,12,06,02,42,0.00
2012,12,06,02,43,0.00
2012,12,06,02,44,0.00
2012,12,06,02,45,0.00
2012,12,06,02,46,0.00
2012,12,06,02,47,0.00
2012,12,06,02,48,0.00
2012,12,06,02,49,0.00
2012,12,06,02,50,0.00
2012,12,06,02,51,0.00
2012,12,06,02,52,0.00
2012,12,06,02,53,0.00
2012,12,06,02,54,0.00
2012,12,06,02,55,0.00
2012,12,06,02,56,0.00
2012,12,06,02,57,0.00
2012,12,06,02,58,0.00
2012,12,06,02,59,0.00
2012,12,06,03,00,0.00
2012,12,06,03,01,0.00
2012,12,06,03,02,0.00
2012,12,06,03,03,0.00
2012,12,06,03,04,0.00
2012,12,06,03,05,0.00
2012,12,06,03,06,0.00
2012,12,06,03,07,0.00
2012,12,06,03,08,0.00
2012,12,06,03,09,0.00
2012,12,06,03,10,0.00
2012,12,06,03,11,0.00
2012,12,06,03,12,0.00
2012,12,06,03,13,0.00
2012,12,06,03,14,0.00
2012,12,06,03,15,0.00
2012,12,06,03,16,0.00
2012,12,06,03,17,0.00
2012,12,06,03,18,0.00
2012,12,06,03,19,0.00
2012,12,06,03,20,0.00
2012,12,06,03,21,0.00
2012,12,06,03,22,0.00
2012,12,06,03,23,0.00
2012,12,06,03,24,0.00
2012,12,06,03,25,0.00
2012,12,06,03,26,0.00
2012,12,06,03,27,0.00
2012,12,06,03,28,0.00
2012,12,06,03,29,0.00
2012,12,06,03,30,0.00
2012,12,06,03,31,0.00
2012,12,06,03,32,0.00
2012,12,06,03,33,0.00
2012,12,06,03,34,0.00
2012,12,06,03,35,0.00
2012,12,06,03,36,0.00
2012,12,06,03,37,0.00
2012,12,06,03,38,0.00
2012,12,06,03,39,0.00
2012,12,06,03,40,0.00
2012,12,06,03,41,0.00
2012,12,06,03,42,0.00
2012,12,06,03,43,0.00
2012,12,06,03,44,0.00
2012,12,06,03,45,0.00
2012,12,06,03,46,0.00
2012,12,06,03,47,0.00
2012,12,06,03,48,0.00
2012,12,06,03,49,0.00
2012,12,06,03,50,0.00
2012,12,06,03,51,0.00
2012,12,06,03,52,0.00
2012,12,06,03,53,0.00
2012,12,06,03,54,0.00
2012,12,06,03,55,0.00
2012,12,06,03,56,0.00
2012,12,06,03,57,0.00
2012,12,06,03,58,0.00
2012,12,06,03,59,0.00
2012,12,06,04,00,0.00
2012,12,06,04,01,0.00
2012,12,06,04,02,0.00
2012,12,06,04,03,0.00
2012,12,06,04,04,0.00
2012,12,06,04,05,0.00
2012,12,06,04,06,0.00
2012,12,06,04,07,0.00
2012,12,06,04,08,0.00
2012,12,06,04,09,0.00
2012,12,06,04,10,0.00
2012,12,06,04,11,0.00
2012,12,06,04,12,0.00
2012,12,06,04,13,0.00
2012,12,06,04,14,0.00
2012,12,06,04,15,0.00
2012,12,06,04,16,0.00
2012,12,06,04,17,0.00
2012,12,06,04,18,0.00
2012,12,06,04,19,0.00
2012,12,06,04,20,0.00
2012,12,06,04,21,0.00
2012,12,06,04,22,0.00
2012,12,06,04,23,0.00
2012,12,06,04,24,0.00
2012,12,06,04,25,0.00
2012,12,06,04,26,0.00
2012,12,06,04,27,0.00
2012,12,06,04,28,0.00
2012,12,06,04,29,0.00
2012,12,06,04,30,0.00
2012,12,06,04,31,0.00
2012,12,06,04,32,0.00
2012,12,06,04,33,0.00
2012,12,06,04,34,0.00
2012,12,06,04,35,0.00
2012,12,06,04,36,0.00
2012,12,06,04,37,0.00
2012,12,06,04,38,0.00
2012,12,06,04,39,0.00
2012,12,06,04,40,0.00
2012,12,06,04,41,0.00
2012,12,06,04,42,0.00
2012,12,06,04,43,0.00
2012,12,06,04,44,0.00
2012,12,06,04,45,0.00
2012,12,06,04,46,0.00
2012,12,06,04,47,0.00
2012,12,06,04,48,0.00
2012,12,06,04,49,0.00
2012,12,06,04,50,0.00
2012,12,06,04,51,0.00
2012,12,06,04,52,0.00
2012,12,06,04,53,0.00
2012,12,06,04,54,0.00
2012,12,06,04,55,0.00
2012,12,06,04,56,0.00
2012,12,06,04,57,0.00
2012,12,06,04,58,0.00
2012,12,06,04,59,0.00
2012,12,06,05,00,0.00
2012,12,06,05,01,0.00
2012,12,06,05,02,0.00
2012,12,06,05,03,0.00
2012,12,06,05,04,0.00
2012,12,06,05,05,0.00
2012,12,06,05,06,0.00
2012,12,06,05,07,0.00
2012,12,06,05,08,0.00
2012,12,06,05,09,0.00
2012,12,06,05,10,0.00
2012,12,06,05,11,0.00
2012,12,06,05,12,0.00
2012,12,06,05,13,0.00
2012,12,06,05,14,0.00
2012,12,06,05,15,0.00
2012,12,06,05,16,0.00
2012,12,06,05,17,0.00
2012,12,06,05,18,0.00
2012,12,06,05,19,0.00
2012,12,06,05,20,0.00
2012,12,06,05,21,0.00
2012,12,06,05,22,0.00
2012,12,06,05,23,0.00
2012,12,06,05,24,0.00
2012,12,06,05,25,0.00
2012,12,06,05,26,0.00
2012,12,06,05,27,0.00
2012,12,06,05,28,0.00
2012,12,06,05,29,0.00
2012,12,06,05,30,0.00
2012,12,06,05,31,0.00
2012,12,06,05,32,0.00
2012,12,06,05,33,0.00
2012,12,06,05,34,0.00
2012,12,06,05,35,0.00
2012,12,06,05,36,0.00
2012,12,06,05,37,0.00
2012,12,06,05,38,0.00
2012,12,06,05,39,0.00
2012,12,06,05,40,0.00
2012,12,06,05,41,0.00
2012,12,06,05,42,0.00
2012,12,06,05,43,0.00
2012,12,06,05,44,0.00
2012,12,06,05,45,0.00
2012,12,06,05,46,0.00
2012,12,06,05,47,0.00
2012,12,06,05,48,0.00
2012,12,06,05,49,0.00
2012,12,06,05,50,0.00
2012,12,06,05,51,0.00
2012,12,06,05,52,0.00
2012,12,06,05,53,0.00
2012,12,06,05,54,0.00
2012,12,06,05,55,0.00
2012,12,06,05,56,0.00
2012,12,06,05,57,0.00
2012,12,06,05,58,0.00
2012,12,06,05,59,0.00
2012,12,06,06,00,0.00
2012,12,06,06,01,0.00
2012,12,06,06,02,0.00
2012,12,06,06,03,0.00
2012,12,06,06,04,0.00
2012,12,06,06,05,0.00
2012,12,06,06,06,0.00
2012,12,06,06,07,0.00
2012,12,06,06,08,0.00
2012,12,06,06,09,0.00
2012,12,06,06,10,0.00
2012,12,06,06,11,0.00
2012,12,06,06,12,0.00
2012,12,06,06,13,0.00
2012,12,06,06,14,0.00
2012,12,06,06,15,0.00
2012,12,06,06,16,0.00
2012,12,06,06,17,0.00
2012,12,06,06,18,0.00
2012,12,06,06,19,0.00
2012,12,06,06,20,0.00
2012,12,06,06,21,0.00
2012,12,06,06,22,0.00
2012,12,06,06,23,0.00
2012,12,06,06,24,0.00
2012,12,06,06,25,0.00
2012,12,06,06,26,0.00
2012,12,06,06,27,0.00
2012,12,06,06,28,0.00
2012,12,06,06,29,0.00
2012,12,06,06,30,0.00
2012,12,06,06,31,0.00
2012,12,06,06,32,0.00
2012,12,06,06,33,0.00
2012,12,06,06,34,0.00
2012,12,06,06,35,0.00
2012,12,06,06,36,0.00
2012,12,06,06,37,0.00
2012,12,06,06,38,0.00
2012,12,06,06,39,0.00
2012,12,06,06,40,0.00
2012,12,06,06,41,0.00
2012,12,06,06,42,0.00
2012,12,06,06,43,0.00
2012,12,06,06,44,0.00
2012,12,06,06,45,0.00
2012,12,06,06,46,0.00
2012,12,06,06,47,0.00
2012,12,06,06,48,0.00
2012,12,06,06,49,0.00
2012,12,06,06,50,0.00
2012,12,06,06,51,0.00
2012,12,06,06,52,0.00
2012,12,06,06,53,0.00
2012,12,06,06,54,0.00
2012,12,06,06,55,0.00
2012,12,06,06,56,0.00
2012,12,06,06,57,0.00
2012,12,06,06,58,0.00
2012,12,06,06,59,0.00
2012,12,06,07,00,0.00
2012,12,06,07,01,0.00
2012,12,06,07,02,0.00
2012,12,06,07,03,0.00
2012,12,06,07,04,0.00
2012,12,06,07,05,0.00
2012,12,06,07,06,0.00
2012,12,06,07,07,0.00
2012,12,06,07,08,0.00
2012,12,06,07,09,0.00
2012,12,06,07,10,0.00
2012,12,06,07,11,0.00
2012,12,06,07,12,0.00
2012,12,06,07,13,0.00
2012,12,06,07,14,0.00
2012,12,06,07,15,0.00
2012,12,06,07,16,0.00
2012,12,06,07,17,0.00
2012,12,06,07,18,0.00
2012,12,06,07,19,0.00
2012,12,06,07,20,0.00
2012,12,06,07,21,0.00
2012,12,06,07,22,0.00
2012,12,06,07,23,0.00
2012,12,06,07,24,0.00
2012,12,06,07,25,0.00
2012,12,06,07,26,0.00
2012,12,06,07,27,0.00
2012,12,06,07,28,0.00
2012,12,06,07,29,0.00
2012,12,06,07,30,0.00
2012,12,06,07,31,0.00
2012,12,06,07,32,0.00
2012,12,06,07,33,0.00
2012,12,06,07,34,0.00
2012,12,06,07,35,0.00
2012,12,06,07,36,0.00
2012,12,06,07,37,0.00
2012,12,06,07,38,0.00
2012,12,06,07,39,0.00
2012,12,06,07,40,0.00
2012,12,06,07,41,0.00
2012,12,06,07,42,0.00
2012,12,06,07,43,0.00
2012,12,06,07,44,0.00
2012,12,06,07,45,0.00
2012,12,06,07,46,0.00
2012,12,06,07,47,0.00
2012,12,06,07,48,0.00
2012,12,06,07,49,0.00
2012,12,06,07,50,0.00
2012,12,06,07,51,0.00
2012,12,06,07,52,0.00
2012,12,06,07,53,0.00
2012,12,06,07,54,0.00
2012,12,06,07,55,0.00
2012,12,06,07,56,0.00
2012,12,06,07,57,0.00
2012,12,06,07,58,0.00
2012,12,06,07,59,0.00
2012,12,06,08,00,0.00
2012,12,06,08,01,0.00
2012,12,06,08,02,0.00
2012,12,06,08,03,0.00
2012,12,06,08,04,0.00
2012,12,06,08,05,0.00
2012,12,06,08,06,0.00
2012,12,06,08,07,0.00
2012,12,06,08,08,0.00
2012,12,06,08,09,0.00
2012,12,06,08,10,0.00
2012,12,06,08,11,0.00
2012,12,06,08,12,0.00
2012,12,06,08,13,0.00
2012,12,06,08,14,0.00
2012,12,06,08,15,0.80
2012,12,06,08,16,5.00
2012,12,06,08,17,5.00
2012,12,06,08,18,5.00
2012,12,06,08,19,5.00
2012,12,06,08,20,5.00
2012,12,06,08,21,5.00
2012,12,06,08,22,5.00
2012,12,06,08,23,5.00
2012,12,06,08,24,5.00
2012,12,06,08,25,5.00
2012,12,06,08,26,5.00
2012,12,06,08,27,6.30
2012,12,06,08,28,7.00
2012,12,06,08,29,7.00
2012,12,06,08,30,7.00
2012,12,06,08,31,7.00
2012,12,06,08,32,7.00
2012,12,06,08,33,8.80
2012,12,06,08,34,9.00
2012,12,06,08,35,10.90
2012,12,06,08,36,11.00
2012,12,06,08,37,11.10
2012,12,06,08,38,12.00
2012,12,06,08,39,12.00
2012,12,06,08,40,12.50
2012,12,06,08,41,14.00
2012,12,06,08,42,14.00
2012,12,06,08,43,14.00
2012,12,06,08,44,14.80
2012,12,06,08,45,16.00
2012,12,06,08,46,16.90
2012,12,06,08,47,18.00
2012,12,06,08,48,18.00
2012,12,06,08,49,18.60
2012,12,06,08,50,19.00
2012,12,06,08,51,20.40
2012,12,06,08,52,21.00
2012,12,06,08,53,22.60
2012,12,06,08,54,23.00
2012,12,06,08,55,24.70
2012,12,06,08,56,25.00
2012,12,06,08,57,25.00
2012,12,06,08,58,23.00
2012,12,06,08,59,22.90
2012,12,06,09,00,21.00
2012,12,06,09,01,21.00
2012,12,06,09,02,21.00
2012,12,06,09,03,21.40
2012,12,06,09,04,23.00
2012,12,06,09,05,23.70
2012,12,06,09,06,25.00
2012,12,06,09,07,25.40
2012,12,06,09,08,26.90
2012,12,06,09,09,28.90
2012,12,06,09,10,31.10
2012,12,06,09,11,32.60
2012,12,06,09,12,34.20
2012,12,06,09,13,36.30
2012,12,06,09,14,38.40
2012,12,06,09,15,39.80
2012,12,06,09,16,41.50
2012,12,06,09,17,43.60
2012,12,06,09,18,45.80
2012,12,06,09,19,46.00
2012,12,06,09,20,47.00
2012,12,06,09,21,47.10
2012,12,06,09,22,49.00
2012,12,06,09,23,49.00
2012,12,06,09,24,49.00
2012,12,06,09,25,49.40
2012,12,06,09,26,51.00
2012,12,06,09,27,51.00
2012,12,06,09,28,51.00
2012,12,06,09,29,51.00
2012,12,06,09,30,51.00
2012,12,06,09,31,51.00
2012,12,06,09,32,50.10
2012,12,06,09,33,49.00
2012,12,06,09,34,50.10
2012,12,06,09,35,51.00
2012,12,06,09,36,52.30
2012,12,06,09,37,53.70
2012,12,06,09,38,55.50
2012,12,06,09,39,56.00
2012,12,06,09,40,56.00
2012,12,06,09,41,56.00
2012,12,06,09,42,56.00
2012,12,06,09,43,54.10
2012,12,06,09,44,52.90
2012,12,06,09,45,50.80
2012,12,06,09,46,49.00
2012,12,06,09,47,49.00
2012,12,06,09,48,49.00
2012,12,06,09,49,49.00
2012,12,06,09,50,49.00
2012,12,06,09,51,49.00
2012,12,06,09,52,49.00
2012,12,06,09,53,49.00
2012,12,06,09,54,49.00
2012,12,06,09,55,49.00
2012,12,06,09,56,49.00
2012,12,06,09,57,49.00
2012,12,06,09,58,49.00
2012,12,06,09,59,49.00
2012,12,06,10,00,50.40
2012,12,06,10,01,52.50
2012,12,06,10,02,53.00
2012,12,06,10,03,53.80
2012,12,06,10,04,54.00
2012,12,06,10,05,55.80
2012,12,06,10,06,56.00
2012,12,06,10,07,58.10
2012,12,06,10,08,60.20
2012,12,06,10,09,62.30
2012,12,06,10,10,65.60
2012,12,06,10,11,69.20
2012,12,06,10,12,70.80
2012,12,06,10,13,74.60
2012,12,06,10,14,76.30
2012,12,06,10,15,77.70
2012,12,06,10,16,79.00
2012,12,06,10,17,79.90
2012,12,06,10,18,80.00
2012,12,06,10,19,79.00
2012,12,06,10,20,79.00
2012,12,06,10,21,79.00
2012,12,06,10,22,80.30
2012,12,06,10,23,82.40
2012,12,06,10,24,83.70
2012,12,06,10,25,85.50
2012,12,06,10,26,89.40
2012,12,06,10,27,90.00
2012,12,06,10,28,90.00
2012,12,06,10,29,90.00
2012,12,06,10,30,89.90
2012,12,06,10,31,87.90
2012,12,06,10,32,86.00
2012,12,06,10,33,85.70
2012,12,06,10,34,84.00
2012,12,06,10,35,84.00
2012,12,06,10,36,83.80
2012,12,06,10,37,83.00
2012,12,06,10,38,82.20
2012,12,06,10,39,81.00
2012,12,06,10,40,81.00
2012,12,06,10,41,81.00
2012,12,06,10,42,81.00
2012,12,06,10,43,81.00
2012,12,06,10,44,81.00
2012,12,06,10,45,81.00
2012,12,06,10,46,79.60
2012,12,06,10,47,80.50
2012,12,06,10,48,81.00
2012,12,06,10,49,82.70
2012,12,06,10,50,83.90
2012,12,06,10,51,87.60
2012,12,06,10,52,90.80
2012,12,06,10,53,93.10
2012,12,06,10,54,95.10
2012,12,06,10,55,97.20
2012,12,06,10,56,98.40
2012,12,06,10,57,100.00
2012,12,06,10,58,100.00
2012,12,06,10,59,100.00
2012,12,06,11,00,99.40
2012,12,06,11,01,96.90
2012,12,06,11,02,93.40
2012,12,06,11,03,90.60
2012,12,06,11,04,88.10
2012,12,06,11,05,84.30
2012,12,06,11,06,80.70
2012,12,06,11,07,77.20
2012,12,06,11,08,74.70
2012,12,06,11,09,72.60
2012,12,06,11,10,72.00
2012,12,06,11,11,72.00
2012,12,06,11,12,73.60
2012,12,06,11,13,74.00
2012,12,06,11,14,74.00
2012,12,06,11,15,72.10
2012,12,06,11,16,69.90
2012,12,06,11,17,68.80
2012,12,06,11,18,66.80
2012,12,06,11,19,65.00
2012,12,06,11,20,65.00
2012,12,06,11,21,65.00
2012,12,06,11,22,65.00
2012,12,06,11,23,65.00
2012,12,06,11,24,65.80
2012,12,06,11,25,67.00
2012,12,06,11,26,67.90
2012,12,06,11,27,69.50
2012,12,06,11,28,71.00
2012,12,06,11,29,74.30
2012,12,06,11,30,76.60
2012,12,06,11,31,78.30
2012,12,06,11,32,80.40
2012,12,06,11,33,82.50
2012,12,06,11,34,83.80
2012,12,06,11,35,85.70
2012,12,06,11,36,87.70
2012,12,06,11,37,89.80
2012,12,06,11,38,90.90
2012,12,06,11,39,93.00
2012,12,06,11,40,97.00
2012,12,06,11,41,97.20
2012,12,06,11,42,98.00
2012,12,06,11,43,98.00
2012,12,06,11,44,98.00
2012,12,06,11,45,98.00
2012,12,06,11,46,98.00
2012,12,06,11,47,98.00
2012,12,06,11,48,98.80
2012,12,06,11,49,100.00
2012,12,06,11,50,101.00
2012,12,06,11,51,102.00
2012,12,06,11,52,103.10
2012,12,06,11,53,104.70
2012,12,06,11,54,105.00
2012,12,06,11,55,105.00
2012,12,06,11,56,105.00
2012,12,06,11,57,104.20
2012,12,06,11,58,102.30
2012,12,06,11,59,100.30
2012,12,06,12,00,100.00
2012,12,06,12,01,100.00
2012,12,06,12,02,100.00
2012,12,06,12,03,100.00
2012,12,06,12,04,100.00
2012,12,06,12,05,100.30
2012,12,06,12,06,102.60
2012,12,06,12,07,106.00
2012,12,06,12,08,110.20
2012,12,06,12,09,114.60
2012,12,06,12,10,119.10
2012,12,06,12,11,122.60
2012,12,06,12,12,126.30
2012,12,06,12,13,129.80
2012,12,06,12,14,133.00
2012,12,06,12,15,137.00
2012,12,06,12,16,140.80
2012,12,06,12,17,145.80
2012,12,06,12,18,152.70
2012,12,06,12,19,155.80
2012,12,06,12,20,157.60
2012,12,06,12,21,167.40
2012,12,06,12,22,174.90
2012,12,06,12,23,172.40
2012,12,06,12,24,169.30
2012,12,06,12,25,171.60
2012,12,06,12,26,184.30
2012,12,06,12,27,209.90
2012,12,06,12,28,233.80
2012,12,06,12,29,214.80
2012,12,06,12,30,186.00
2012,12,06,12,31,176.90
2012,12,06,12,32,186.00
2012,12,06,12,33,188.80
2012,12,06,12,34,178.80
2012,12,06,12,35,166.10
2012,12,06,12,36,184.30
2012,12,06,12,37,188.50
2012,12,06,12,38,179.80
2012,12,06,12,39,173.20
2012,12,06,12,40,150.80
2012,12,06,12,41,139.60
2012,12,06,12,42,139.00
2012,12,06,12,43,141.20
2012,12,06,12,44,147.60
2012,12,06,12,45,144.50
2012,12,06,12,46,142.20
2012,12,06,12,47,150.60
2012,12,06,12,48,155.60
2012,12,06,12,49,203.30
2012,12,06,12,50,190.90
2012,12,06,12,51,155.90
2012,12,06,12,52,155.60
2012,12,06,12,53,156.20
2012,12,06,12,54,149.70
2012,12,06,12,55,144.20
2012,12,06,12,56,141.00
2012,12,06,12,57,141.00
2012,12,06,12,58,136.90
2012,12,06,12,59,131.00
2012,12,06,13,00,128.90
2012,12,06,13,01,126.30
2012,12,06,13,02,125.00
2012,12,06,13,03,123.70
2012,12,06,13,04,121.60
2012,12,06,13,05,121.00
2012,12,06,13,06,125.50
2012,12,06,13,07,122.20
2012,12,06,13,08,120.20
2012,12,06,13,09,127.60
2012,12,06,13,10,121.30
2012,12,06,13,11,122.80
2012,12,06,13,12,120.00
2012,12,06,13,13,120.00
2012,12,06,13,14,119.10
2012,12,06,13,15,114.80
2012,12,06,13,16,117.50
2012,12,06,13,17,116.00
2012,12,06,13,18,115.30
2012,12,06,13,19,114.00
2012,12,06,13,20,114.00
2012,12,06,13,21,112.70
2012,12,06,13,22,109.00
2012,12,06,13,23,107.00
2012,12,06,13,24,107.00
2012,12,06,13,25,105.10
2012,12,06,13,26,99.40
2012,12,06,13,27,95.60
2012,12,06,13,28,92.00
2012,12,06,13,29,88.60
2012,12,06,13,30,86.40
2012,12,06,13,31,84.30
2012,12,06,13,32,84.00
2012,12,06,13,33,84.00
2012,12,06,13,34,86.00
2012,12,06,13,35,88.20
2012,12,06,13,36,90.30
2012,12,06,13,37,93.60
2012,12,06,13,38,97.60
2012,12,06,13,39,101.00
2012,12,06,13,40,106.10
2012,12,06,13,41,112.60
2012,12,06,13,42,117.80
2012,12,06,13,43,123.40
2012,12,06,13,44,127.40
2012,12,06,13,45,127.50
2012,12,06,13,46,124.80
2012,12,06,13,47,121.30
2012,12,06,13,48,117.60
2012,12,06,13,49,114.10
2012,12,06,13,50,111.60
2012,12,06,13,51,108.10
2012,12,06,13,52,103.20
2012,12,06,13,53,98.00
2012,12,06,13,54,91.90
2012,12,06,13,55,86.50
2012,12,06,13,56,81.20
2012,12,06,13,57,77.00
2012,12,06,13,58,75.80
2012,12,06,13,59,71.70
2012,12,06,14,00,69.80
2012,12,06,14,01,69.00
2012,12,06,14,02,69.00
2012,12,06,14,03,69.00
2012,12,06,14,04,69.00
2012,12,06,14,05,69.40
2012,12,06,14,06,70.80
2012,12,06,14,07,73.80
2012,12,06,14,08,76.50
2012,12,06,14,09,78.10
2012,12,06,14,10,80.20
2012,12,06,14,11,81.00
2012,12,06,14,12,79.70
2012,12,06,14,13,76.90
2012,12,06,14,14,73.10
2012,12,06,14,15,70.50
2012,12,06,14,16,69.20
2012,12,06,14,17,69.00
2012,12,06,14,18,69.80
2012,12,06,14,19,71.90
2012,12,06,14,20,76.00
2012,12,06,14,21,76.30
2012,12,06,14,22,80.30
2012,12,06,14,23,90.60
2012,12,06,14,24,87.00
2012,12,06,14,25,83.20
2012,12,06,14,26,84.60
2012,12,06,14,27,86.70
2012,12,06,14,28,89.10
2012,12,06,14,29,91.80
2012,12,06,14,30,93.90
2012,12,06,14,31,95.00
2012,12,06,14,32,94.00
2012,12,06,14,33,89.20
2012,12,06,14,34,83.00
2012,12,06,14,35,74.80
2012,12,06,14,36,67.10
2012,12,06,14,37,59.80
2012,12,06,14,38,54.10
2012,12,06,14,39,49.80
2012,12,06,14,40,46.40
2012,12,06,14,41,42.40
2012,12,06,14,42,40.20
2012,12,06,14,43,39.00
2012,12,06,14,44,39.00
2012,12,06,14,45,39.00
2012,12,06,14,46,39.00
2012,12,06,14,47,39.00
2012,12,06,14,48,38.50
2012,12,06,14,49,37.00
2012,12,06,14,50,36.30
2012,12,06,14,51,35.00
2012,12,06,14,52,35.00
2012,12,06,14,53,34.10
2012,12,06,14,54,33.00
2012,12,06,14,55,33.00
2012,12,06,14,56,33.00
2012,12,06,14,57,33.00
2012,12,06,14,58,33.00
2012,12,06,14,59,34.40
2012,12,06,15,00,35.00
2012,12,06,15,01,36.60
2012,12,06,15,02,38.60
2012,12,06,15,03,39.00
2012,12,06,15,04,39.90
2012,12,06,15,05,40.00
2012,12,06,15,06,42.00
2012,12,06,15,07,41.90
2012,12,06,15,08,40.00
2012,12,06,15,09,40.00
2012,12,06,15,10,39.80
2012,12,06,15,11,39.20
2012,12,06,15,12,40.00
2012,12,06,15,13,40.60
2012,12,06,15,14,42.70
2012,12,06,15,15,44.00
2012,12,06,15,16,44.80
2012,12,06,15,17,46.50
2012,12,06,15,18,48.00
2012,12,06,15,19,50.20
2012,12,06,15,20,51.00
2012,12,06,15,21,52.30
2012,12,06,15,22,53.00
2012,12,06,15,23,53.00
2012,12,06,15,24,53.00
2012,12,06,15,25,51.40
2012,12,06,15,26,52.70
2012,12,06,15,27,53.00
2012,12,06,15,28,54.00
2012,12,06,15,29,56.00
2012,12,06,15,30,56.00
2012,12,06,15,31,56.00
2012,12,06,15,32,56.00
2012,12,06,15,33,56.00
2012,12,06,15,34,55.50
2012,12,06,15,35,54.00
2012,12,06,15,36,53.70
2012,12,06,15,37,53.00
2012,12,06,15,38,53.00
2012,12,06,15,39,51.30
2012,12,06,15,40,48.10
2012,12,06,15,41,46.50
2012,12,06,15,42,44.80
2012,12,06,15,43,41.60
2012,12,06,15,44,39.30
2012,12,06,15,45,37.60
2012,12,06,15,46,34.00
2012,12,06,15,47,32.20
2012,12,06,15,48,30.40
2012,12,06,15,49,28.30
2012,12,06,15,50,25.30
2012,12,06,15,51,21.40
2012,12,06,15,52,18.00
2012,12,06,15,53,13.90
2012,12,06,15,54,12.00
2012,12,06,15,55,12.00
2012,12,06,15,56,12.00
2012,12,06,15,57,12.00
2012,12,06,15,58,12.00
2012,12,06,15,59,12.60
2012,12,06,16,00,14.80
2012,12,06,16,01,16.00
2012,12,06,16,02,15.10
2012,12,06,16,03,13.00
2012,12,06,16,04,10.40
2012,12,06,16,05,9.00
2012,12,06,16,06,7.80
2012,12,06,16,07,7.00
2012,12,06,16,08,7.00
2012,12,06,16,09,7.00
2012,12,06,16,10,7.00
2012,12,06,16,11,5.30
2012,12,06,16,12,5.00
2012,12,06,16,13,5.00
2012,12,06,16,14,5.00
2012,12,06,16,15,5.00
2012,12,06,16,16,5.00
2012,12,06,16,17,5.00
2012,12,06,16,18,4.30
2012,12,06,16,19,0.00
2012,12,06,16,20,0.00
2012,12,06,16,21,0.00
2012,12,06,16,22,0.00
2012,12,06,16,23,0.00
2012,12,06,16,24,0.00
2012,12,06,16,25,0.00
2012,12,06,16,26,0.00
2012,12,06,16,27,0.00
2012,12,06,16,28,0.00
2012,12,06,16,29,0.00
2012,12,06,16,30,0.00
2012,12,06,16,31,0.00
2012,12,06,16,32,0.00
2012,12,06,16,33,0.00
2012,12,06,16,34,0.00
2012,12,06,16,35,0.00
2012,12,06,16,36,0.00
2012,12,06,16,37,0.00
2012,12,06,16,38,0.00
2012,12,06,16,39,0.00
2012,12,06,16,40,0.00
2012,12,06,16,41,0.00
2012,12,06,16,42,0.00
2012,12,06,16,43,0.00
2012,12,06,16,44,0.00
2012,12,06,16,45,0.00
2012,12,06,16,46,0.00
2012,12,06,16,47,0.00
2012,12,06,16,48,0.00
2012,12,06,16,49,0.00
2012,12,06,16,50,0.00
2012,12,06,16,51,0.00
2012,12,06,16,52,0.00
2012,12,06,16,53,0.00
2012,12,06,16,54,0.00
2012,12,06,16,55,0.00
2012,12,06,16,56,0.00
2012,12,06,16,57,0.00
2012,12,06,16,58,0.00
2012,12,06,16,59,0.00
2012,12,06,17,00,0.00
2012,12,06,17,01,0.00
2012,12,06,17,02,0.00
2012,12,06,17,03,0.00
2012,12,06,17,04,0.00
2012,12,06,17,05,0.00
2012,12,06,17,06,0.00
2012,12,06,17,07,0.00
2012,12,06,17,08,0.00
2012,12,06,17,09,0.00
2012,12,06,17,10,0.00
2012,12,06,17,11,0.00
2012,12,06,17,12,0.00
2012,12,06,17,13,0.00
2012,12,06,17,14,0.00
2012,12,06,17,15,0.00
2012,12,06,17,16,0.00
2012,12,06,17,17,0.00
2012,12,06,17,18,0.00
2012,12,06,17,19,0.00
2012,12,06,17,20,0.00
2012,12,06,17,21,0.00
2012,12,06,17,22,0.00
2012,12,06,17,23,0.00
2012,12,06,17,24,0.00
2012,12,06,17,25,0.00
2012,12,06,17,26,0.00
2012,12,06,17,27,0.00
2012,12,06,17,28,0.00
2012,12,06,17,29,0.00
2012,12,06,17,30,0.00
2012,12,06,17,31,0.00
2012,12,06,17,32,0.00
2012,12,06,17,33,0.00
2012,12,06,17,34,0.00
2012,12,06,17,35,0.00
2012,12,06,17,36,0.00
2012,12,06,17,37,0.00
2012,12,06,17,38,0.00
2012,12,06,17,39,0.00
2012,12,06,17,40,0.00